Showing default

TOMORROW-S5, 63234

Orbit data source: Space-Track

TOMORROW-S5, 63234 is a payload satellite owned by Tomorrow.io (US) in SSO that was launched on Sat, 15 Mar 2025 UTC via an FALCON 9 launch vehicle from the Air Force Western Test Range (AFWTR). Payload-class satellites include a variety of spacecraft equipped with specific instruments for various scientific and technological missions. These include communications satellites like Starlink; space stations such as the ISS; scientific satellites like the Hubble; Earth observation satellites from companies like Planet Labs, Umbra, and HawkEye 360; GPS; miniature CubeSats for education and research; and military/defense satellites.

Loading next visibility...
Identifier
63234, 2025-052AA
Orbit
SSO
Country
Flag of USUS
Related business
Manufacturer
Blue Canyon
Mission
Operational Commercial Weather
Bus & Motor
CUBESAT 6U, Unknown motor
Mass
12 kg wet, 12 kg dry
Launch date (UTC)
2025-03-15 (7 months ago)
Launch vehicle
FALCON 9
Launch site
Air Force Western Test Range (AFWTR)
Object type
Payload
Rocket body
Debris
Shape & HBR
Box + 2 Pan, 1.0 m
Radar Cross Section
0.138 m², Medium (>0.1 m² and < 1m²)

Expand to show TLE details & history
Last TLE update: 5 hours ago

TLE from 5 hours ago
0 TOMORROW-S5
1 63234U 25052AA  25288.95111397  .00006109  00000-0  29117-3 0  9992
2 63234  97.4202 180.5250 0005442 295.2634  64.8037 15.19457899 32710
Epoch: 2025-10-15T22:49Z
TLE epoch observation values (Epoch: 2025-10-15T22:49:36.247Z)
Latitude
0.00006°
Longitude
173.40614°
Altitude
508.973 km
Speed
7.61 km/s
True Right ascension
12h 02m 05s
True Declination
0° 00' 00"
Sunlit
Object was in daylight at epoch
Visualization orbit readout
Latitude
Unknown
Longitude
Unknown
Altitude
Unknown
Speed
Unknown
Apparent Right ascension
Unknown
Apparent Declination
Unknown
Sunlit
N/A
Visualization observer readout
Local Sidereal Time
22:57:03
Azimuth
Unknown
Elevation
Unknown
Doppler factor
Unknown
Orbital elements
Apogee altitude
508.191 km
Perigee altitude
500.7 km
Semi-major axis
6,882.582 km
Eccentricity
0.00054
Inclination
97.4202°
RAAN
180.525°
Arg. of periapsis
295.2634°
True anomaly
64.86014°
Mean anomaly
64.8037°
Eccentric anomaly
64.83192°
Mean motion
3.80116 °/min
Orbital period
94.71 mins
BSTAR
0.00029117
Loading maneuver chart data...
Computing Atmospheric mass density...
Loading historical data...
Loading historical data...
Loading historical data...
Loading historical data...
Loading historical data...
Loading historical data...
Loading historical data...

Documentation

Showing up to 5 results
|